Weather in Berezovka

Russia / Amur Oblast     50°34′24″N   127°51′53″E
temp.,
°C
wind,
m/s
gust,
m/s
humid.,
%
clouds,
%
prec.,
mm/h
press.,
hPa
HPBL,
m
18 april, sun
sun1800:00+3ssw33755 0.0 101244
03:00+2ssw33680 0.0 101134
06:00+1s34740 0.0 101170
09:00+7s56550 0.0 1010377
12:00+12s56400 0.0 10081013
15:00+15s56320 0.0 10051481
18:00+14s46390 0.0 1004619
21:00+9s35610 0.0 100570
19 april, mon
mon1900:00+7s36685 0.0 100487
03:00+5s37675 0.0 1003100
06:00+5nnw915715 0.0 1005605
09:00+2nnw10145298 0.0 1009876
12:00+5nnw1014290 0.1 10111529
15:00+6nnw1114200 0.1 10112110
18:00+4nnw916230 0.0 10132139
21:00+1nw1018280 0.0 10151732
20 april, tue
tue2000:00−1nw818340 0.0 10151462
03:00−1nw1020340 0.0 10141335
06:00−2nw917290 0.0 10151124
09:00+2nw915190 0.0 10161135
12:00+7nw811130 0.0 10161434
15:00+11nw69123 0.0 10141686
18:00+12w47220 0.0 1014685
21:00+7sw33340 0.0 101420
21 april, wed
wed2100:00+5sse33445 0.0 101525
03:00+4s23530 0.0 101421
06:00+3sse225834 0.0 101525
09:00+11s453786 0.0 1014339
12:00+19s57225 0.0 10131194
15:00+22ssw68195 0.0 10121705
18:00+20s69275 0.0 1012644
21:00+14sse4742100 0.0 1014104
22 april, thu
thu2200:00+11se411505 0.0 1015175
03:00+9se4115362 0.0 1016185
06:00+9se616484 0.0 1017355
09:00+14sse9163696 0.0 1017708
12:00+21sse9122336 0.0 10171349
15:00+23ssw81219100 0.0 10171587
18:00+20s61129100 0.0 1018424
21:00+16ssw41141100 0.0 1020166